[[{"header":{"parameterUnit":"m.s-1","parameterCategory":1,"la1":30.2991,"la2":30.254,"lo1":-89.0895,"lo2":-89.0444,"dy":0.0017,"dx":0.0017,"nx":28,"ny":28,"refTime":"2025-09-11T21:00:00:Z","depth":0,"parameterNumber":2,"parameterNumberName":"U-component_of_WINDS"},"data":[0,0,0,0,0,0,0,0,0,0,0,0,0,0,0,0,0,0,0,0,0,0,0,0,0,0,0,0,0,0,0,0,0,0,0,0,0,0,0,0,0,0,0,0,0,0,0,0,0,0,0,0,0,0,0,0,0,0,-0.3934,-0.3935,0,-0.3972,-0.3972,-0.3973,-0.3964,-0.3964,-0.3963,-0.3962,-0.3998,-0.4,-0.4001,0,0,0,0,0,0,0,0,0,0,0,0,0,-0.3856,-0.3858,-0.3934,-0.3935,-0.3935,-0.3972,-0.3972,-0.3973,-0.3964,-0.3963,-0.3963,-0.3962,-0.3998,-0.3999,-0.4001,0,0,0,0,0,0,0,0,0,0,0,0,0,-0.3892,-0.3858,-0.3934,-0.3936,-0.3936,-0.3972,-0.3972,-0.3973,-0.3965,-0.3963,-0.3962,-0.3961,-0.3997,-0.3999,-0.4002,-0.4038,0,0,-0.4009,-0.401,0,0,0,0,0,0,0,0,-0.389,-0.3895,-0.3935,-0.3936,-0.3936,-0.3962,-0.3958,-0.3995,-0.3965,-0.3954,-0.3962,-0.3961,-0.3987,-0.399,-0.3999,-0.404,-0.4041,-0.4009,-0.4011,-0.4012,-0.4013,0,0,0,0,0,0,0,-0.3887,-0.3893,-0.3949,-0.3936,-0.3936,-0.3935,-0.3938,-0.3965,-0.3976,-0.3955,-0.3954,-0.3959,-0.3987,-0.3997,-0.4,-0.4042,-0.4009,-0.4011,-0.4013,-0.4014,-0.4118,-0.4119,0,0,0,0,0,0,-0.3884,-0.3891,-0.3948,-0.395,-0.391,-0.3937,-0.3941,-0.3955,-0.3975,-0.3978,-0.396,-0.3958,-0.3993,-0.3997,-0.4001,-0.4049,-0.4012,-0.4014,-0.4015,-0.4117,-0.4118,-0.412,0,0,0,0,0,0,-0.3883,-0.389,-0.3947,-0.3921,-0.3928,-0.3939,-0.3955,-0.3956,-0.3966,-0.3979,-0.3981,-0.3968,-0.3993,-0.3998,-0.403,-0.4049,-0.4015,-0.4017,-0.4115,-0.4117,-0.4119,-0.4141,0,0,0,0,0,0,-0.3881,-0.3889,-0.3902,-0.3921,-0.3929,-0.3974,-0.3956,-0.3958,-0.3971,-0.3969,-0.3987,-0.3989,-0.3992,-0.4027,-0.4033,-0.4052,-0.4019,-0.4114,-0.4116,-0.4119,-0.4138,-0.4143,-0.4147,0,0,0,0,0,-0.3878,-0.3905,-0.3903,-0.391,-0.3946,-0.3975,-0.398,-0.3984,-0.3972,-0.3987,-0.3996,-0.3989,-0.4046,-0.403,-0.4037,-0.4057,-0.4112,-0.4116,-0.4118,-0.4136,-0.4142,-0.4147,0,0,0,0,0,0,-0.3886,-0.3908,-0.3905,-0.394,-0.3956,-0.3974,-0.3992,-0.3989,-0.4008,-0.4006,-0.4009,-0.4013,-0.4047,-0.4055,-0.4036,-0.4096,-0.4078,-0.4082,-0.4089,-0.4095,-0.4099,-0.4097,-0.4021,0,0,0,0,0,-0.3893,-0.3915,-0.3932,-0.3961,-0.3969,-0.3979,-0.3992,-0.3994,-0.4011,-0.4017,-0.4028,-0.4045,-0.4067,-0.4081,-0.4102,-0.4139,-0.4145,-0.4157,-0.4162,-0.4165,-0.4169,-0.4194,-0.4201,-0.413,-0.413,-0.413,0,0,-0.3905,-0.392,-0.3933,-0.3963,-0.3976,-0.4,-0.3985,-0.401,-0.4028,-0.4021,-0.4053,-0.4062,-0.408,-0.4117,-0.4133,-0.4125,-0.4191,-0.4169,-0.4172,-0.4174,-0.4198,-0.4205,-0.4211,-0.4132,-0.4131,-0.4131,0,0,-0.3941,-0.3953,-0.398,-0.3995,-0.4015,-0.4022,-0.4029,-0.4049,-0.4055,-0.4088,-0.4084,-0.4106,-0.4142,-0.4157,-0.417,-0.4216,-0.4212,-0.4222,-0.4246,-0.427,-0.4276,-0.4281,-0.4301,-0.4307,-0.4226,-0.4226,-0.4226,0,-0.3953,-0.3989,-0.3994,-0.4021,-0.4036,-0.4033,-0.4062,-0.4075,-0.4101,-0.4111,-0.4102,-0.4151,-0.4163,-0.4205,-0.4217,-0.4226,-0.4235,-0.4221,-0.4275,-0.428,-0.4285,-0.4304,-0.4311,-0.4228,-0.4228,-0.4227,-0.4227,0,-0.4006,-0.4031,-0.4051,-0.4079,-0.4096,-0.4123,-0.4133,-0.415,-0.4151,-0.416,-0.4195,-0.421,-0.4236,-0.4245,-0.4245,-0.4289,-0.4283,-0.4274,-0.4256,-0.4293,-0.4311,-0.4318,-0.423,-0.4229,-0.4229,-0.4228,0,0,-0.4046,-0.408,-0.4087,-0.4102,-0.4126,-0.4146,-0.4175,-0.4202,-0.4218,-0.4236,-0.4262,-0.4296,-0.4289,-0.4303,-0.4305,-0.4326,-0.4367,-0.4315,-0.4316,-0.4327,-0.4419,-0.4427,-0.4435,-0.4364,-0.4365,-0.4366,-0.4418,0,-0.4086,-0.4137,-0.4144,-0.419,-0.4216,-0.4215,-0.4241,-0.426,-0.4269,-0.4293,-0.4303,-0.4328,-0.4316,-0.4325,-0.4346,-0.4357,-0.4385,-0.4353,-0.4389,-0.439,-0.4387,-0.4444,-0.4452,-0.45,-0.4425,-0.4426,-0.4427,0,-0.4138,-0.4162,-0.4211,-0.4237,-0.4248,-0.4271,-0.4299,-0.4321,-0.4343,-0.4349,-0.4367,-0.4368,-0.4399,-0.438,-0.4425,-0.4403,-0.4418,-0.4427,-0.4429,-0.4433,-0.4412,-0.4453,-0.4515,-0.4524,-0.4437,-0.4437,-0.4436,0,-0.4166,-0.421,-0.4247,-0.4259,-0.4289,-0.4306,-0.4319,-0.434,-0.4357,-0.4382,-0.4393,-0.442,-0.4435,-0.4456,-0.4465,-0.445,-0.4511,-0.4491,-0.4518,-0.4518,-0.4531,-0.453,-0.46,-0.4538,-0.4537,-0.4537,-0.4537,0,-0.4211,-0.4242,-0.426,-0.4283,-0.4319,-0.4327,-0.4363,-0.4375,-0.4395,-0.4421,-0.4421,-0.4445,-0.4455,-0.4481,-0.4488,-0.4526,-0.4532,-0.4539,-0.454,-0.454,-0.4539,-0.4551,-0.4548,-0.4539,-0.4539,-0.4538,-0.4538,0,-0.4248,-0.4261,-0.4301,-0.4328,-0.4336,-0.4361,-0.4385,-0.4407,-0.4418,-0.4451,-0.446,-0.4477,-0.4508,-0.4519,-0.4556,-0.4561,-0.4607,-0.4604,-0.46,-0.4601,-0.4628,-0.4626,-0.4708,-0.4721,-0.4648,-0.4649,-0.465,0,-0.4276,-0.43,-0.4331,-0.435,-0.4364,-0.4393,-0.4412,-0.4423,-0.4442,-0.4473,-0.4492,-0.4524,-0.455,-0.4601,-0.4617,-0.4646,-0.4646,-0.4673,-0.465,-0.465,-0.465,-0.4649,-0.4653,-0.4677,-0.4678,-0.4679,-0.4679,0,-0.4326,-0.4333,-0.436,-0.4392,-0.4415,-0.444,-0.4464,-0.4479,-0.4493,-0.4516,-0.4549,-0.457,-0.461,-0.4643,-0.4674,-0.4688,-0.4687,-0.4687,-0.4695,-0.4695,-0.4693,-0.4698,-0.4614,-0.4684,-0.4684,-0.4684,-0.4683,-0.4683,-0.4361,-0.4385,-0.4412,-0.4444,-0.4464,-0.4487,-0.4512,-0.4527,-0.4556,-0.4591,-0.4595,-0.4632,-0.4658,-0.47,-0.4716,-0.4746,-0.4738,-0.4749,-0.4753,-0.4756,-0.476,-0.4687,-0.4751,-0.4751,-0.4751,-0.4751,-0.475,0,-0.4413,-0.4432,-0.4461,-0.4497,-0.4523,-0.4522,-0.455,-0.4572,-0.4605,-0.4629,-0.4656,-0.4697,-0.473,-0.475,-0.4783,-0.4803,-0.4804,-0.4812,-0.4811,-0.4816,-0.4762,-0.4754,-0.4811,-0.4811,-0.4811,-0.4811,-0.4811,-0.4811,-0.4444,-0.4485,-0.4496,-0.4548,-0.4566,-0.4604,-0.4621,-0.4643,-0.4664,-0.471,-0.4738,-0.4752,-0.4775,-0.4811,-0.4842,-0.4847,-0.486,-0.487,-0.4874,-0.4825,-0.4819,-0.4813,-0.4804,-0.4872,-0.4872,-0.4925,-0.4926,-0.4926]},{"header":{"parameterUnit":"m.s-1","parameterCategory":1,"la1":30.2991,"la2":30.254,"lo1":-89.0895,"lo2":-89.0444,"dy":0.0017,"dx":0.0017,"nx":28,"ny":28,"refTime":"2025-09-11T21:00:00:Z","depth":0,"parameterNumber":3,"parameterNumberName":"V-component_of_WINDS"},"data":[0,0,0,0,0,0,0,0,0,0,0,0,0,0,0,0,0,0,0,0,0,0,0,0,0,0,0,0,0,0,0,0,0,0,0,0,0,0,0,0,0,0,0,0,0,0,0,0,0,0,0,0,0,0,0,0,0,0,3.8045,3.8046,0,3.8121,3.8122,3.8123,3.8138,3.8138,3.8137,3.8136,3.8209,3.8211,3.8214,0,0,0,0,0,0,0,0,0,0,0,0,0,3.7906,3.7908,3.8045,3.8046,3.8047,3.8121,3.8122,3.8123,3.8138,3.8138,3.8137,3.8136,3.8208,3.8211,3.8214,0,0,0,0,0,0,0,0,0,0,0,0,0,3.7972,3.7909,3.8044,3.8063,3.8066,3.8121,3.8122,3.8123,3.8138,3.8138,3.8137,3.8136,3.8207,3.8211,3.8214,3.8254,0,0,3.8226,3.8227,0,0,0,0,0,0,0,0,3.7969,3.7977,3.806,3.8062,3.8065,3.8119,3.8099,3.8167,3.8139,3.8111,3.8136,3.8135,3.8179,3.8185,3.8201,3.8257,3.826,3.8226,3.8228,3.823,3.8231,0,0,0,0,0,0,0,3.7964,3.7974,3.8075,3.8061,3.8064,3.8066,3.8074,3.8112,3.8149,3.8113,3.8114,3.8123,3.8181,3.8198,3.8203,3.8261,3.8226,3.8229,3.8231,3.8233,3.8351,3.8352,0,0,0,0,0,0,3.7957,3.797,3.8072,3.8077,3.8014,3.8069,3.8079,3.8103,3.8148,3.8155,3.8124,3.8124,3.8192,3.8199,3.8206,3.8253,3.823,3.8233,3.8235,3.835,3.8351,3.8352,0,0,0,0,0,0,3.7954,3.7966,3.8069,3.8024,3.8037,3.8072,3.8099,3.8105,3.8122,3.8157,3.8163,3.8135,3.8191,3.82,3.8242,3.8256,3.8235,3.8238,3.8349,3.8351,3.8352,3.835,0,0,0,0,0,0,3.795,3.7965,3.7982,3.8024,3.804,3.8106,3.81,3.8107,3.8129,3.8129,3.8169,3.8174,3.8191,3.8236,3.8245,3.8261,3.8241,3.8348,3.835,3.8351,3.8349,3.8351,3.8353,0,0,0,0,0,3.7945,3.7977,3.7983,3.7995,3.8062,3.8107,3.8115,3.8136,3.813,3.8146,3.8168,3.8173,3.8253,3.824,3.8251,3.8267,3.8347,3.8349,3.8351,3.8348,3.8351,3.8353,0,0,0,0,0,0,3.7934,3.7983,3.799,3.8038,3.8068,3.8109,3.813,3.8138,3.817,3.8169,3.8191,3.82,3.8239,3.8258,3.8242,3.8307,3.83,3.8304,3.8293,3.8296,3.8298,3.8292,3.8244,0,0,0,0,0,3.7938,3.7972,3.8012,3.805,3.8065,3.8095,3.8115,3.8129,3.816,3.8173,3.8198,3.8227,3.8258,3.8279,3.831,3.8352,3.8359,3.8369,3.8371,3.8372,3.8375,3.8397,3.8401,3.8359,3.8359,3.8359,0,0,3.7944,3.7976,3.7995,3.8049,3.8074,3.8106,3.8106,3.8141,3.8164,3.8177,3.8218,3.8237,3.8271,3.8312,3.8332,3.8329,3.8388,3.8375,3.8376,3.8378,3.8399,3.8403,3.8406,3.8361,3.8361,3.836,0,0,3.7973,3.8001,3.8035,3.8061,3.8099,3.8119,3.8127,3.8167,3.8181,3.8222,3.8232,3.826,3.8314,3.8337,3.8356,3.8392,3.8397,3.8401,3.8412,3.8433,3.8436,3.8439,3.845,3.8454,3.8404,3.8404,3.8404,0,3.7976,3.8028,3.8051,3.8086,3.8108,3.8123,3.8156,3.8178,3.8224,3.8238,3.8235,3.8303,3.8326,3.8372,3.8381,3.8396,3.8404,3.8396,3.8434,3.8437,3.844,3.8451,3.8455,3.8405,3.8405,3.8405,3.8405,0,3.8028,3.8064,3.8086,3.8132,3.8156,3.819,3.8216,3.8238,3.8248,3.8268,3.8308,3.8337,3.8374,3.8386,3.8396,3.8432,3.8429,3.843,3.8422,3.8444,3.8454,3.8458,3.8405,3.8405,3.8405,3.8405,0,0,3.8052,3.811,3.8118,3.8138,3.8181,3.8208,3.8241,3.8278,3.8295,3.8326,3.8352,3.8398,3.8398,3.8419,3.8432,3.8451,3.8475,3.8449,3.845,3.8451,3.8515,3.8513,3.8518,3.8479,3.848,3.8481,3.8511,0,3.8085,3.8146,3.8168,3.8218,3.8249,3.8263,3.8292,3.832,3.8338,3.8366,3.8386,3.8417,3.8416,3.8428,3.8448,3.8468,3.8488,3.8466,3.8502,3.8503,3.8492,3.8523,3.8522,3.8549,3.8516,3.8516,3.8517,0,3.8131,3.8164,3.8217,3.8255,3.8269,3.8295,3.8329,3.8357,3.8388,3.84,3.8423,3.8435,3.8467,3.8459,3.8503,3.8488,3.8504,3.8516,3.8517,3.852,3.851,3.8525,3.8559,3.8562,3.8524,3.8523,3.8523,0,3.814,3.8198,3.8237,3.8254,3.83,3.8317,3.8336,3.8367,3.8388,3.8417,3.843,3.8463,3.8481,3.8505,3.8524,3.8516,3.8565,3.8559,3.8574,3.8573,3.8582,3.8581,3.8617,3.8595,3.8595,3.8595,3.8595,0,3.8174,3.8205,3.8242,3.8265,3.83,3.8324,3.8357,3.8377,3.8404,3.843,3.8444,3.8468,3.8493,3.8519,3.8534,3.8567,3.8575,3.8584,3.8587,3.8582,3.858,3.8591,3.8589,3.8596,3.8596,3.8595,3.8595,0,3.819,3.8216,3.8259,3.8299,3.8309,3.8333,3.8366,3.8389,3.8408,3.844,3.8449,3.8479,3.851,3.8532,3.8573,3.8583,3.8617,3.8621,3.8607,3.8609,3.8622,3.8619,3.8665,3.8671,3.8646,3.8646,3.8646,0,3.8208,3.8233,3.8276,3.8295,3.8315,3.8346,3.8367,3.8391,3.8412,3.8449,3.8466,3.8499,3.8527,3.8576,3.86,3.863,3.8634,3.8647,3.8638,3.8632,3.8632,3.863,3.8631,3.8648,3.8648,3.8649,3.8649,0,3.8238,3.8249,3.8281,3.8316,3.8341,3.8369,3.8398,3.8412,3.844,3.8463,3.8496,3.8518,3.8559,3.8591,3.8623,3.8641,3.8649,3.8652,3.8656,3.865,3.8641,3.8644,3.8609,3.865,3.865,3.865,3.865,3.865,3.8255,3.8277,3.831,3.8344,3.8368,3.8394,3.8416,3.8439,3.8468,3.8504,3.8516,3.855,3.8579,3.8624,3.8642,3.8668,3.8666,3.8674,3.8675,3.8676,3.8675,3.8638,3.8674,3.8674,3.8674,3.8674,3.8674,0,3.8283,3.8306,3.8337,3.8376,3.8402,3.8409,3.8441,3.8461,3.8492,3.8519,3.8546,3.8583,3.8614,3.864,3.8671,3.8687,3.8691,3.8694,3.8692,3.8696,3.8675,3.8668,3.869,3.869,3.869,3.869,3.869,3.869,3.8301,3.8338,3.8354,3.8402,3.8424,3.8459,3.8476,3.8499,3.8521,3.8562,3.8589,3.8606,3.8632,3.8665,3.8693,3.87,3.871,3.8712,3.8719,3.8699,3.8697,3.8695,3.8688,3.8714,3.8714,3.8737,3.8737,3.8737]}]]